Wind_Speed
30 29 28 28 28 28 29 29 29 29 30 31 31 31 31 33 34 35 36 36 37 38 38 39 39 39 38 39 39 39 40 40 41 40 40 40 39 38 37 37 37 38 39 39
29 28 27 27 27 27 28 28 28 29 29 30 30 30 30 32 34 35 36 36 36 37 38 38 39 38 39 39 39 39 40 40 41 41 40 39 39 39 38 38 38 38 38 39
29 28 27 27 27 28 28 28 28 28 29 30 31 30 29 30 32 33 34 34 35 35 36 37 38 38 37 38 39 39 39 40 41 40 40 40 39 39 38 38 38 38 37 38
29 28 28 27 27 28 28 27 28 28 29 29 29 30 28 29 30 31 32 32 33 35 35 36 37 38 37 36 37 38 39 39 40 40 40 40 40 39 38 38 39 38 38 38
28 27 27 27 28 28 27 27 28 28 28 29 28 30 27 27 28 29 29 31 32 33 34 35 36 37 36 35 36 36 36 38 38 39 39 39 39 39 38 38 39 39 38 38
29 27 26 26 27 28 27 27 28 29 29 29 27 29 28 27 27 27 28 29 30 31 33 35 35 35 35 35 35 35 35 37 38 38 38 38 38 39 39 39 39 38 38 38
28 27 26 26 26 27 27 27 28 30 29 29 27 29 27 26 27 27 27 28 30 30 32 34 35 35 35 35 35 35 35 36 37 38 38 38 38 38 38 38 40 39 38 38
28 27 26 26 26 27 27 27 28 29 30 29 28 28 26 26 27 28 28 29 30 30 32 33 34 35 35 36 36 36 35 36 37 38 38 38 38 37 37 38 39 40 39 39
28 28 27 27 27 26 27 27 27 29 30 30 29 28 26 26 27 27 28 30 31 32 32 33 33 34 35 37 37 37 37 36 36 36 37 38 38 38 37 38 39 40 40 40
29 29 28 28 27 27 27 27 27 27 29 30 29 28 27 26 26 26 27 28 30 31 32 32 33 34 34 36 36 37 37 38 37 37 37 37 38 39 39 39 39 39 40 40
28 29 28 29 28 28 27 27 27 28 28 29 30 28 26 26 25 26 27 27 29 30 31 31 33 34 35 35 36 36 37 38 38 38 37 37 37 38 39 38 39 39 39 40
27 29 29 28 28 28 28 27 27 28 28 29 30 30 28 27 26 26 26 26 27 29 30 31 32 33 34 35 37 38 38 38 38 39 39 38 38 38 39 39 39 39 39 40
27 28 29 28 28 28 28 27 28 29 29 29 30 30 28 27 26 26 25 25 26 27 28 29 30 32 33 34 36 37 37 38 38 39 39 40 40 39 39 40 41 40 40 40
27 28 29 29 28 28 27 27 28 29 30 30 30 30 27 27 27 26 26 25 25 25 27 28 29 31 32 33 34 35 36 37 38 39 39 40 40 40 40 40 40 40 41 40
28 29 29 29 29 29 27 27 28 29 29 30 30 30 28 28 28 27 27 26 25 24 26 28 29 30 31 32 34 35 36 37 38 38 38 39 39 40 41 41 41 41 41 41
27 28 28 28 28 29 28 27 28 28 29 30 30 28 28 28 28 28 27 27 26 25 25 27 28 29 30 32 33 34 35 36 36 36 37 38 38 39 40 42 42 41 41 41
26 26 27 27 28 29 28 28 29 29 29 30 29 28 28 27 27 27 28 27 27 27 26 26 27 29 30 31 32 33 34 34 35 36 37 38 38 39 40 41 41 41 40 40
25 25 25 27 27 29 28 28 29 30 30 30 29 28 28 27 28 28 27 27 27 28 27 27 27 28 28 29 30 31 32 33 35 36 36 37 38 39 40 41 41 40 40 40
27 27 27 28 29 29 27 27 28 28 28 28 28 28 28 28 28 28 28 28 28 28 28 28 27 28 28 29 29 29 30 32 33 34 35 36 37 38 39 39 40 40 39 39
26 26 27 28 29 29 27 26 27 27 27 26 27 28 28 28 28 28 29 28 29 28 28 28 28 28 28 28 29 29 30 31 32 33 34 35 36 37 37 37 38 39 38 38
24 25 26 27 28 28 26 25 26 27 27 27 27 27 27 27 27 27 28 29 29 29 29 29 29 28 28 28 29 29 30 31 31 33 34 35 35 35 36 36 37 37 37 37
25 26 26 27 28 26 26 26 27 27 27 27 27 27 28 28 27 27 28 28 28 29 29 29 29 29 29 29 29 30 30 30 30 30 31 32 33 34 34 34 34 35 35 35
25 26 26 27 26 25 25 26 27 27 27 27 27 27 28 28 28 28 28 28 28 28 28 28 29 29 29 29 29 29 29 29 29 30 30 30 31 31 32 32 33 34 34 35
26 26 27 27 26 25 25 26 27 27 27 27 27 27 28 28 28 28 28 27 28 28 29 29 29 29 29 29 29 29 29 29 29 29 30 30 30 30 31 32 33 34 34 34
25 26 27 27 26 26 26 27 28 27 27 27 27 27 27 27 27 27 27 27 27 28 28 28 28 28 28 28 29 29 29 29 29 29 29 29 29 30 31 32 32 33 33 34
25 26 27 27 26 27 27 28 28 27 27 27 27 27 27 27 26 26 26 26 27 27 27 27 27 27 27 28 29 29 29 29 29 29 29 29 30 30 30 30 31 31 31 32
Wind_Direction
275 274 275 276 274 273 273 274 274 275 274 271 270 269 266 263 260 258 255 255 254 251 249 249 248 247 247 248 248 248 247 247 248 248 248 247 248 248 248 250 250 249 249 249
273 273 274 273 274 274 275 275 276 275 275 273 271 269 267 265 263 261 258 255 254 251 249 249 247 247 248 249 249 249 248 248 248 248 247 247 247 248 247 249 249 250 250 249
272 272 271 272 274 276 276 277 278 277 275 274 274 271 268 266 264 263 260 256 254 252 248 248 246 246 249 250 250 249 249 247 247 247 246 246 246 247 248 248 249 249 249 250
272 270 270 272 274 276 277 278 279 280 279 278 277 276 270 268 266 263 260 256 254 252 249 245 243 245 249 252 252 250 249 247 246 247 247 247 246 246 247 249 249 251 249 250
273 270 269 270 273 274 276 277 279 280 281 279 278 278 275 271 268 265 261 257 255 253 248 245 244 245 249 250 252 250 247 245 245 245 245 246 247 247 248 249 250 250 251 253
270 269 269 270 271 273 274 276 278 280 281 281 281 280 277 274 272 267 263 257 255 252 248 247 246 248 250 249 250 247 248 247 246 247 246 246 247 248 248 249 249 250 253 254
268 267 268 269 270 271 274 276 279 281 282 284 285 282 280 276 273 268 263 258 257 255 250 247 248 250 249 249 247 246 248 247 247 248 247 248 247 249 250 251 250 251 253 253
267 266 266 267 269 271 273 277 280 283 285 286 286 284 282 277 274 269 264 262 261 257 253 250 249 249 249 248 246 247 247 247 248 247 247 248 248 249 251 252 253 252 252 254
267 266 265 266 267 270 273 276 279 281 283 285 285 284 283 280 275 270 265 263 261 258 256 253 250 249 249 248 247 247 246 247 247 247 247 248 248 249 252 254 255 253 252 254
267 267 267 266 266 268 272 275 276 279 282 284 285 285 285 282 279 275 269 264 260 257 255 254 251 250 250 249 248 248 248 248 248 248 249 249 249 251 253 254 255 254 253 253
269 268 268 267 267 268 269 271 273 277 279 282 284 285 285 285 283 280 273 267 262 259 257 256 253 251 251 251 250 250 250 249 249 250 250 252 251 252 253 253 254 255 255 254
269 268 267 267 267 267 267 270 272 275 278 279 281 283 284 284 283 282 277 271 265 260 257 256 255 253 253 252 252 251 251 249 250 250 251 252 253 253 254 253 253 254 254 254
269 268 266 265 264 266 267 269 271 272 275 277 279 282 282 282 281 281 278 273 268 263 258 254 253 253 254 254 253 252 252 251 250 252 253 253 254 254 254 253 253 253 253 254
267 268 266 266 267 267 267 267 268 270 273 275 278 280 279 278 278 278 277 273 269 265 260 255 254 254 255 255 254 253 253 253 252 253 254 255 255 255 254 253 253 253 253 254
268 269 267 266 266 267 267 268 269 271 274 276 278 278 277 277 276 275 275 274 271 269 263 259 257 256 258 258 257 256 255 254 254 254 255 256 255 255 254 253 252 252 253 253
268 268 267 266 266 267 267 268 269 272 275 276 277 277 276 277 276 274 273 273 272 271 267 263 259 258 259 260 258 257 256 255 254 255 255 256 255 255 254 253 253 253 253 253
271 271 268 268 267 268 268 268 269 273 275 275 276 276 274 274 275 275 274 272 272 271 268 265 262 261 260 260 258 257 256 255 254 254 255 256 256 255 254 253 254 255 255 254
268 268 268 269 270 270 274 273 273 274 274 273 274 274 273 272 272 272 272 272 271 271 271 268 265 262 260 259 258 258 257 256 255 255 255 256 257 256 255 254 254 254 254 254
267 267 268 270 271 273 275 276 277 275 274 273 274 274 273 272 272 271 271 271 271 272 272 269 266 264 261 260 258 258 259 258 258 257 257 258 258 258 257 255 254 253 252 252
267 266 266 269 271 274 278 279 279 277 275 275 274 274 273 272 272 271 271 271 270 271 272 270 269 267 264 262 260 260 260 259 259 258 259 259 259 259 258 255 253 252 251 250
268 266 266 269 272 276 279 280 280 278 279 278 277 275 273 271 272 271 270 271 271 271 270 270 270 269 266 263 262 262 261 260 260 260 259 259 258 258 258 256 254 252 251 251
270 270 269 271 274 277 279 279 279 281 280 279 278 276 273 272 271 271 270 271 271 269 269 269 270 269 266 264 264 263 261 261 261 260 258 258 258 258 256 254 252 251 250 252
269 271 272 273 275 277 278 278 279 278 279 279 278 275 273 272 272 271 271 271 270 269 269 270 270 269 267 265 264 262 260 261 262 260 258 258 258 256 254 252 251 250 252 252
270 271 272 273 274 276 276 276 276 277 279 280 278 276 274 272 272 272 272 272 272 270 269 268 268 268 267 265 262 261 261 260 260 260 259 259 259 258 255 253 252 252 252 253
270 271 272 272 274 275 276 276 278 279 280 280 279 277 275 274 274 273 272 273 273 271 270 268 267 267 266 264 261 260 260 261 260 260 260 260 259 258 256 253 253 254 254 255
268 270 273 274 275 275 276 276 276 276 277 278 278 278 277 276 275 274 273 273 272 272 270 268 267 267 266 264 262 261 262 262 261 262 262 261 261 259 256 253 252 253 255 255
Height
5699 5700 5699 5698 5696 5695 5694 5694 5694 5693 5692 5690 5689 5689 5690 5689 5689 5690 5692 5693 5694 5695 5697 5699 5702 5705 5708 5710 5713 5716 5719 5722 5724 5726 5728 5730 5733 5734 5736 5738 5739 5742 5744 5746
5692 5691 5690 5689 5688 5687 5687 5686 5686 5685 5683 5681 5681 5681 5682 5681 5680 5681 5682 5683 5684 5686 5688 5690 5692 5695 5698 5701 5703 5706 5709 5711 5714 5716 5719 5721 5723 5725 5727 5728 5730 5732 5734 5736
5683 5684 5682 5682 5681 5680 5679 5678 5677 5676 5675 5673 5672 5673 5674 5673 5672 5672 5672 5674 5675 5676 5678 5680 5683 5686 5688 5691 5694 5696 5699 5701 5703 5706 5708 5711 5713 5715 5717 5719 5721 5723 5725 5727
5675 5675 5675 5674 5674 5672 5672 5670 5669 5668 5667 5666 5665 5663 5666 5665 5664 5664 5664 5664 5665 5666 5668 5670 5674 5677 5679 5681 5684 5686 5689 5691 5694 5696 5699 5702 5704 5707 5708 5710 5712 5714 5715 5717
5667 5667 5666 5666 5666 5665 5664 5663 5662 5660 5658 5657 5657 5655 5658 5657 5656 5656 5656 5656 5656 5657 5659 5661 5664 5667 5670 5672 5674 5676 5679 5682 5684 5686 5689 5692 5694 5697 5699 5701 5703 5704 5706 5708
5659 5659 5658 5659 5658 5657 5657 5656 5655 5653 5651 5651 5651 5648 5649 5649 5648 5648 5648 5648 5648 5650 5651 5653 5655 5658 5660 5663 5665 5667 5669 5672 5675 5677 5679 5682 5685 5687 5690 5691 5693 5695 5697 5699
5651 5651 5651 5651 5650 5650 5649 5649 5647 5645 5643 5643 5642 5640 5641 5641 5640 5640 5640 5640 5641 5642 5643 5645 5647 5649 5651 5653 5656 5658 5660 5662 5665 5667 5670 5673 5676 5678 5680 5682 5684 5686 5688 5690
5642 5643 5643 5643 5643 5642 5642 5641 5640 5638 5636 5635 5634 5633 5634 5633 5632 5631 5631 5632 5632 5633 5634 5636 5638 5640 5642 5644 5646 5648 5650 5653 5655 5658 5661 5663 5666 5668 5670 5673 5675 5677 5679 5681
5634 5634 5635 5635 5635 5635 5634 5633 5633 5630 5628 5627 5626 5626 5626 5625 5624 5623 5623 5623 5623 5624 5625 5627 5629 5631 5633 5635 5637 5639 5641 5644 5646 5649 5651 5653 5656 5658 5661 5663 5665 5667 5669 5671
5625 5626 5627 5626 5627 5627 5627 5626 5625 5623 5620 5619 5619 5619 5619 5617 5616 5615 5614 5614 5614 5614 5616 5618 5620 5622 5624 5626 5628 5630 5632 5634 5636 5639 5641 5644 5646 5648 5650 5652 5655 5657 5659 5661
5618 5618 5619 5618 5619 5619 5619 5618 5616 5615 5614 5612 5611 5614 5612 5610 5608 5607 5607 5606 5606 5606 5607 5609 5610 5612 5614 5616 5618 5620 5623 5624 5627 5629 5631 5634 5636 5638 5640 5642 5644 5646 5648 5650
5609 5610 5610 5610 5610 5610 5610 5610 5609 5608 5607 5605 5603 5607 5604 5602 5601 5599 5599 5598 5598 5598 5599 5600 5601 5603 5605 5607 5609 5611 5613 5615 5617 5619 5621 5623 5625 5627 5630 5632 5634 5635 5638 5640
5600 5601 5601 5601 5604 5603 5602 5601 5601 5600 5599 5597 5596 5599 5597 5595 5593 5592 5591 5590 5590 5590 5591 5592 5593 5595 5596 5598 5599 5601 5603 5605 5607 5609 5611 5613 5615 5617 5619 5621 5623 5625 5627 5629
5592 5592 5594 5595 5594 5594 5594 5594 5593 5592 5591 5590 5589 5589 5589 5587 5586 5585 5584 5583 5583 5583 5583 5584 5585 5587 5588 5589 5590 5592 5593 5595 5597 5599 5601 5603 5605 5606 5608 5610 5612 5614 5616 5618
5583 5584 5585 5586 5586 5586 5586 5586 5585 5584 5583 5582 5582 5581 5580 5579 5578 5578 5577 5576 5576 5576 5576 5577 5577 5578 5579 5580 5582 5582 5584 5585 5587 5588 5590 5592 5594 5596 5597 5599 5601 5604 5605 5607
5575 5576 5576 5577 5577 5577 5578 5578 5577 5576 5575 5574 5573 5573 5572 5571 5570 5570 5569 5569 5568 5568 5568 5569 5569 5570 5571 5571 5572 5573 5574 5575 5576 5578 5580 5582 5583 5585 5587 5589 5591 5593 5595 5597
5568 5568 5568 5569 5569 5568 5569 5571 5569 5569 5568 5566 5565 5566 5564 5563 5562 5562 5562 5562 5561 5561 5560 5560 5561 5562 5562 5563 5563 5564 5565 5566 5567 5569 5570 5571 5573 5575 5576 5578 5580 5582 5584 5586
5561 5560 5560 5560 5561 5560 5564 5562 5561 5560 5559 5558 5557 5557 5556 5555 5555 5554 5554 5553 5553 5552 5552 5552 5552 5553 5553 5554 5555 5555 5556 5557 5558 5559 5560 5561 5562 5564 5565 5567 5569 5571 5573 5575
5553 5553 5552 5552 5552 5552 5555 5554 5552 5551 5551 5550 5549 5548 5547 5547 5547 5547 5546 5545 5544 5544 5544 5544 5544 5544 5545 5545 5545 5546 5547 5547 5548 5549 5550 5551 5552 5553 5554 5556 5558 5560 5562 5564
5544 5544 5545 5544 5544 5545 5549 5547 5544 5543 5543 5543 5541 5540 5539 5538 5539 5539 5538 5537 5536 5536 5536 5535 5535 5535 5536 5536 5537 5537 5538 5538 5539 5539 5540 5541 5541 5542 5543 5545 5546 5549 5551 5553
5536 5536 5537 5536 5535 5537 5540 5538 5536 5536 5536 5534 5533 5531 5530 5530 5530 5530 5529 5528 5528 5527 5527 5527 5527 5527 5527 5527 5527 5528 5528 5529 5529 5529 5530 5531 5531 5532 5533 5534 5536 5538 5540 5543
5529 5529 5529 5528 5528 5531 5530 5529 5528 5528 5526 5525 5523 5522 5522 5521 5521 5520 5520 5519 5519 5518 5518 5518 5518 5518 5518 5518 5518 5519 5519 5519 5520 5520 5520 5521 5521 5522 5523 5524 5526 5528 5530 5532
5521 5522 5521 5522 5523 5523 5521 5520 5519 5518 5517 5516 5515 5514 5513 5512 5512 5512 5511 5511 5510 5510 5509 5509 5509 5509 5509 5509 5509 5509 5510 5510 5510 5511 5511 5512 5512 5513 5514 5515 5517 5519 5520 5522
5514 5513 5513 5513 5514 5514 5513 5511 5510 5509 5508 5507 5506 5505 5504 5504 5503 5503 5502 5502 5501 5501 5500 5500 5500 5500 5500 5500 5500 5500 5500 5501 5502 5502 5503 5503 5503 5504 5505 5506 5507 5509 5510 5512
5506 5505 5504 5504 5505 5505 5504 5503 5502 5500 5499 5498 5498 5497 5496 5495 5495 5494 5494 5493 5493 5492 5492 5491 5491 5491 5491 5491 5491 5491 5492 5492 5493 5493 5494 5494 5494 5495 5495 5497 5498 5499 5501 5502
5498 5497 5497 5497 5497 5496 5496 5494 5493 5492 5491 5490 5489 5489 5488 5487 5486 5486 5485 5485 5484 5484 5483 5483 5483 5482 5482 5482 5482 5483 5483 5483 5484 5485 5485 5485 5485 5486 5486 5487 5489 5490 5491 5492